DAL2258 CYVR-KLAS

Flight info

Callsign DAL2258
Flight time N/A
Altitude 35000
Route GRG8/26L SEA J5 FMG J92 OAL DCT TQILA COKTL4
Aircraft A320/M-SDE3FGHIRWY/LB1

Departure

Time N/A
Airport Vancouver International Airport (CYVR)

Arrival

Time 2026-05-03 21:59
Airport Harry Reid International Airport (KLAS)
Time Latitude Longitude Altitude Speed Heading
2026-05-03 20:15 45.32018 -121.49865 34951 ft 452 kts 163°
2026-05-03 20:15 45.25916 -121.47614 34954 ft 452 kts 163°
2026-05-03 20:16 45.19820 -121.45378 34953 ft 452 kts 163°
2026-05-03 20:16 45.13725 -121.43145 34953 ft 453 kts 163°
2026-05-03 20:17 45.07620 -121.40913 34954 ft 453 kts 164°
2026-05-03 20:17 45.01522 -121.38685 34956 ft 453 kts 164°
2026-05-03 20:18 44.95417 -121.36461 34962 ft 453 kts 164°
2026-05-03 20:18 44.89314 -121.34246 34972 ft 453 kts 164°
2026-05-03 20:19 44.83209 -121.32034 34978 ft 453 kts 164°
2026-05-03 20:19 44.77138 -121.29841 34985 ft 453 kts 164°
2026-05-03 20:20 44.71036 -121.27637 34997 ft 453 kts 165°
2026-05-03 20:20 44.64927 -121.25438 34997 ft 453 kts 165°
2026-05-03 20:21 44.58814 -121.23243 35013 ft 453 kts 165°
2026-05-03 20:21 44.52749 -121.21069 35013 ft 453 kts 165°
2026-05-03 20:22 44.46602 -121.18868 35024 ft 453 kts 165°
2026-05-03 20:22 44.40528 -121.16700 35014 ft 453 kts 165°
2026-05-03 20:23 44.34417 -121.14528 35040 ft 452 kts 165°
2026-05-03 20:23 44.28302 -121.12351 35015 ft 453 kts 165°
2026-05-03 20:24 44.22190 -121.10183 34997 ft 453 kts 165°
2026-05-03 20:24 44.16074 -121.08019 34978 ft 453 kts 165°
2026-05-03 20:25 44.09959 -121.05859 34977 ft 453 kts 165°
2026-05-03 20:25 44.03850 -121.03711 35009 ft 453 kts 165°
2026-05-03 20:26 43.97735 -121.01558 34998 ft 453 kts 166°
2026-05-03 20:26 43.91670 -120.99430 35047 ft 451 kts 166°
2026-05-03 20:27 43.85585 -120.97300 35079 ft 450 kts 166°
2026-05-03 20:27 43.79511 -120.95178 35059 ft 450 kts 166°
2026-05-03 20:28 43.73436 -120.93060 35054 ft 450 kts 166°
2026-05-03 20:28 43.67371 -120.90947 35041 ft 449 kts 166°
2026-05-03 20:29 43.61300 -120.88843 35029 ft 449 kts 166°
2026-05-03 20:29 43.55239 -120.86742 35023 ft 449 kts 166°
2026-05-03 20:30 43.49184 -120.84646 35013 ft 448 kts 166°
2026-05-03 20:30 43.43129 -120.82560 35011 ft 448 kts 166°
2026-05-03 20:31 43.37076 -120.80473 35011 ft 448 kts 166°
2026-05-03 20:31 43.31040 -120.78399 35024 ft 447 kts 166°
2026-05-03 20:32 43.25039 -120.76342 35025 ft 447 kts 166°
2026-05-03 20:32 43.19000 -120.74275 35060 ft 446 kts 166°
2026-05-03 20:33 43.12963 -120.72215 35043 ft 446 kts 166°
2026-05-03 20:33 43.06980 -120.70176 35083 ft 445 kts 166°
2026-05-03 20:34 43.00977 -120.68133 35059 ft 445 kts 166°
2026-05-03 20:34 42.94971 -120.66092 35026 ft 445 kts 166°
2026-05-03 20:35 42.88967 -120.64062 35025 ft 444 kts 166°
2026-05-03 20:35 42.82971 -120.62033 35042 ft 443 kts 166°
2026-05-03 20:36 42.76996 -120.60017 35020 ft 443 kts 166°
2026-05-03 20:36 42.71018 -120.58003 35048 ft 441 kts 166°
2026-05-03 20:37 42.65059 -120.56002 35060 ft 441 kts 166°
2026-05-03 20:37 42.59102 -120.54004 35042 ft 441 kts 166°
2026-05-03 20:38 42.53189 -120.52024 35079 ft 439 kts 166°
2026-05-03 20:38 42.47252 -120.50100 35072 ft 439 kts 167°
2026-05-03 20:39 42.41280 -120.48307 35037 ft 439 kts 167°
2026-05-03 20:39 42.35328 -120.46530 35058 ft 437 kts 167°
2026-05-03 20:40 42.29430 -120.44761 35025 ft 437 kts 167°
2026-05-03 20:40 42.23487 -120.42983 35007 ft 437 kts 167°
2026-05-03 20:41 42.17559 -120.41217 34983 ft 436 kts 167°
2026-05-03 20:41 42.11620 -120.39449 34989 ft 436 kts 167°
2026-05-03 20:42 42.05717 -120.37696 34985 ft 437 kts 167°
2026-05-03 20:42 41.99789 -120.35938 34998 ft 437 kts 167°
2026-05-03 20:43 41.93855 -120.34181 35037 ft 436 kts 167°
2026-05-03 20:43 41.87949 -120.32437 35072 ft 435 kts 167°
2026-05-03 20:44 41.82031 -120.30693 35043 ft 435 kts 167°
2026-05-03 20:44 41.76116 -120.28950 35035 ft 435 kts 167°
2026-05-03 20:45 41.70205 -120.27216 34998 ft 435 kts 167°
2026-05-03 20:45 41.64290 -120.25482 34981 ft 435 kts 167°
2026-05-03 20:46 41.59384 -120.24047 34979 ft 435 kts 167°
2026-05-03 20:46 41.53467 -120.22317 34979 ft 435 kts 167°
2026-05-03 20:47 41.47549 -120.20595 34985 ft 435 kts 167°
2026-05-03 20:47 41.41622 -120.18870 34991 ft 435 kts 167°
2026-05-03 20:48 41.35705 -120.17152 35037 ft 434 kts 167°
2026-05-03 20:48 41.29784 -120.15435 35017 ft 435 kts 167°
2026-05-03 20:49 41.23907 -120.13733 35011 ft 435 kts 167°
2026-05-03 20:49 41.17982 -120.12023 35033 ft 434 kts 167°
2026-05-03 20:50 41.12072 -120.10317 35031 ft 434 kts 167°
2026-05-03 20:50 41.06159 -120.08613 35005 ft 434 kts 167°
2026-05-03 20:51 41.00250 -120.06914 34966 ft 435 kts 167°
2026-05-03 20:51 40.94377 -120.05226 34969 ft 434 kts 166°
2026-05-03 20:52 40.88466 -120.03533 34951 ft 434 kts 166°
2026-05-03 20:52 40.82561 -120.01844 34967 ft 434 kts 166°
2026-05-03 20:53 40.76652 -120.00163 34958 ft 434 kts 166°
2026-05-03 20:53 40.70753 -119.98481 34987 ft 433 kts 166°
2026-05-03 20:54 40.64842 -119.96803 34954 ft 435 kts 166°
2026-05-03 20:54 40.55982 -119.94292 35000 ft 433 kts 166°
2026-05-03 20:55 40.50113 -119.92632 34981 ft 434 kts 166°
2026-05-03 20:55 40.44203 -119.90964 34950 ft 434 kts 166°
2026-05-03 20:56 40.38298 -119.89303 34973 ft 434 kts 166°
2026-05-03 20:56 40.32397 -119.87644 34947 ft 434 kts 166°
2026-05-03 20:57 40.26495 -119.85986 34985 ft 433 kts 166°
2026-05-03 20:57 40.20605 -119.84334 34976 ft 433 kts 166°
2026-05-03 20:58 40.14697 -119.82683 34937 ft 434 kts 166°
2026-05-03 20:58 40.08794 -119.81033 34926 ft 433 kts 166°
2026-05-03 20:59 40.02891 -119.79390 34918 ft 433 kts 166°
2026-05-03 20:59 39.96993 -119.77751 34920 ft 433 kts 166°
2026-05-03 21:00 39.92095 -119.76388 34925 ft 433 kts 166°
2026-05-03 21:00 39.85231 -119.74482 34921 ft 434 kts 166°
2026-05-03 21:01 39.79325 -119.72849 34957 ft 434 kts 166°
2026-05-03 21:01 39.73418 -119.71218 34978 ft 433 kts 166°
2026-05-03 21:02 39.67525 -119.69589 35000 ft 433 kts 167°
2026-05-03 21:02 39.61581 -119.67951 34972 ft 434 kts 167°
2026-05-03 21:03 39.55701 -119.66209 34969 ft 432 kts 161°
2026-05-03 21:03 39.52936 -119.64695 34946 ft 431 kts 150°
2026-05-03 21:03 39.50480 -119.62478 34925 ft 430 kts 139°
2026-05-03 21:04 39.46229 -119.57010 34897 ft 432 kts 134°
2026-05-03 21:04 39.42020 -119.51460 34898 ft 432 kts 136°
2026-05-03 21:05 39.37698 -119.46067 34887 ft 432 kts 137°
2026-05-03 21:05 39.33406 -119.40685 34891 ft 433 kts 136°
2026-05-03 21:06 39.29113 -119.35230 34886 ft 433 kts 136°
2026-05-03 21:06 39.24800 -119.29787 34881 ft 434 kts 137°
2026-05-03 21:07 39.20466 -119.24355 34883 ft 434 kts 137°
2026-05-03 21:07 39.16104 -119.18885 34882 ft 435 kts 137°
2026-05-03 21:08 39.11766 -119.13450 34915 ft 435 kts 137°
2026-05-03 21:08 39.07431 -119.08027 34904 ft 435 kts 137°
2026-05-03 21:09 39.03079 -119.02594 34899 ft 436 kts 137°
2026-05-03 21:09 38.98719 -118.97167 34923 ft 435 kts 138°
2026-05-03 21:10 38.94355 -118.91739 34886 ft 437 kts 138°
2026-05-03 21:10 38.89984 -118.86309 34894 ft 437 kts 138°
2026-05-03 21:11 38.85640 -118.80920 34892 ft 437 kts 138°
2026-05-03 21:11 38.81258 -118.75496 34900 ft 437 kts 138°
2026-05-03 21:12 38.76875 -118.70082 34907 ft 438 kts 139°
2026-05-03 21:12 38.72477 -118.64666 34906 ft 438 kts 139°
2026-05-03 21:13 38.68074 -118.59251 34894 ft 439 kts 139°
2026-05-03 21:13 38.63675 -118.53844 34897 ft 439 kts 139°
2026-05-03 21:14 38.59262 -118.48438 34887 ft 439 kts 140°
2026-05-03 21:14 38.54848 -118.43039 34924 ft 439 kts 140°
2026-05-03 21:15 38.50434 -118.37644 34899 ft 440 kts 140°
2026-05-03 21:15 38.46009 -118.32247 34901 ft 440 kts 140°
2026-05-03 21:16 38.41577 -118.26847 34903 ft 440 kts 141°
2026-05-03 21:16 38.37133 -118.21459 34908 ft 441 kts 141°
2026-05-03 21:17 38.33444 -118.16975 34912 ft 441 kts 141°
2026-05-03 21:17 38.28243 -118.10664 34926 ft 441 kts 141°
2026-05-03 21:18 38.23792 -118.05272 34930 ft 442 kts 141°
2026-05-03 21:18 38.19356 -117.99924 34940 ft 442 kts 141°
2026-05-03 21:19 38.14887 -117.94560 34931 ft 442 kts 141°
2026-05-03 21:19 38.10422 -117.89189 34941 ft 442 kts 141°
2026-05-03 21:20 38.05962 -117.83824 34943 ft 442 kts 141°
2026-05-03 21:20 38.01487 -117.78469 34946 ft 442 kts 141°
2026-05-03 21:21 37.96894 -117.73315 34937 ft 441 kts 144°
2026-05-03 21:21 37.92230 -117.68264 34900 ft 441 kts 144°
2026-05-03 21:22 37.87556 -117.63208 34906 ft 442 kts 144°
2026-05-03 21:22 37.82889 -117.58119 34911 ft 443 kts 145°
2026-05-03 21:23 37.78205 -117.53038 34910 ft 444 kts 145°
2026-05-03 21:23 37.73503 -117.47962 34908 ft 443 kts 146°
2026-05-03 21:24 37.71954 -117.46291 34803 ft 440 kts 146°
2026-05-03 21:24 37.69621 -117.43781 34496 ft 441 kts 146°
2026-05-03 21:24 37.67281 -117.41266 34253 ft 442 kts 146°
2026-05-03 21:24 37.64940 -117.38740 34004 ft 443 kts 146°
2026-05-03 21:25 37.62597 -117.36204 33759 ft 444 kts 146°
2026-05-03 21:25 37.60252 -117.33674 33510 ft 445 kts 146°
2026-05-03 21:25 37.57893 -117.31143 33253 ft 445 kts 146°
2026-05-03 21:25 37.55530 -117.28611 33010 ft 446 kts 146°
2026-05-03 21:26 37.50783 -117.23518 32971 ft 449 kts 146°
2026-05-03 21:26 37.45923 -117.18606 32968 ft 446 kts 151°
2026-05-03 21:27 37.40847 -117.14207 32975 ft 446 kts 152°
2026-05-03 21:27 37.35754 -117.09834 32399 ft 439 kts 152°
2026-05-03 21:28 37.33240 -117.07644 31522 ft 441 kts 151°
2026-05-03 21:28 37.30697 -117.05424 30570 ft 446 kts 150°
2026-05-03 21:28 37.28154 -117.03211 29988 ft 443 kts 150°
2026-05-03 21:28 37.25617 -117.01013 29725 ft 443 kts 150°
2026-05-03 21:29 37.23076 -116.98815 29479 ft 444 kts 150°
2026-05-03 21:29 37.20525 -116.96610 29233 ft 445 kts 150°
2026-05-03 21:29 37.17977 -116.94406 28987 ft 445 kts 150°
2026-05-03 21:29 37.15458 -116.92228 28744 ft 446 kts 150°
2026-05-03 21:30 37.12895 -116.90019 28497 ft 447 kts 150°
2026-05-03 21:30 37.10331 -116.87812 28250 ft 448 kts 150°
2026-05-03 21:30 37.07763 -116.85606 28003 ft 448 kts 150°
2026-05-03 21:30 37.05198 -116.83400 27754 ft 447 kts 150°
2026-05-03 21:31 37.02644 -116.81199 27506 ft 445 kts 150°
2026-05-03 21:31 37.00100 -116.79007 27259 ft 443 kts 150°
2026-05-03 21:31 36.97564 -116.76823 27012 ft 441 kts 150°
2026-05-03 21:31 36.95032 -116.74651 26763 ft 440 kts 150°
2026-05-03 21:32 36.92515 -116.72496 26515 ft 438 kts 150°
2026-05-03 21:32 36.90005 -116.70348 26268 ft 436 kts 150°
2026-05-03 21:32 36.87502 -116.68208 26019 ft 434 kts 150°
2026-05-03 21:32 36.85013 -116.66081 25773 ft 433 kts 150°
2026-05-03 21:33 36.82524 -116.63953 25523 ft 431 kts 150°
2026-05-03 21:33 36.80053 -116.61843 25276 ft 429 kts 150°
2026-05-03 21:33 36.77594 -116.59746 25028 ft 428 kts 150°
2026-05-03 21:33 36.75143 -116.57659 24774 ft 421 kts 150°
2026-05-03 21:34 36.72763 -116.55630 24520 ft 409 kts 150°
2026-05-03 21:34 36.70450 -116.53656 24269 ft 397 kts 150°
2026-05-03 21:34 36.68177 -116.51725 24026 ft 395 kts 150°
2026-05-03 21:34 36.65921 -116.49762 23766 ft 396 kts 147°
2026-05-03 21:35 36.63859 -116.47479 23504 ft 399 kts 139°
2026-05-03 21:35 36.62005 -116.44942 23247 ft 400 kts 136°
2026-05-03 21:35 36.60204 -116.42316 22982 ft 398 kts 135°
2026-05-03 21:35 36.58428 -116.39691 22723 ft 397 kts 135°
2026-05-03 21:36 36.56630 -116.37084 22461 ft 394 kts 136°
2026-05-03 21:36 36.54824 -116.34535 22206 ft 393 kts 136°
2026-05-03 21:36 36.53005 -116.32006 21948 ft 391 kts 137°
2026-05-03 21:36 36.51199 -116.29490 21694 ft 389 kts 136°
2026-05-03 21:37 36.49400 -116.26967 21438 ft 389 kts 136°
2026-05-03 21:37 36.47633 -116.24465 21211 ft 380 kts 136°
2026-05-03 21:37 36.45924 -116.22036 20990 ft 368 kts 136°
2026-05-03 21:37 36.44244 -116.19665 20657 ft 363 kts 136°
2026-05-03 21:38 36.42571 -116.17319 20138 ft 361 kts 136°
2026-05-03 21:38 36.40903 -116.14988 19633 ft 361 kts 136°
2026-05-03 21:38 36.39240 -116.12664 19308 ft 356 kts 136°
2026-05-03 21:38 36.37611 -116.10379 19058 ft 350 kts 136°
2026-05-03 21:39 36.36017 -116.08138 18808 ft 344 kts 136°
2026-05-03 21:39 36.34444 -116.05930 18567 ft 337 kts 136°
2026-05-03 21:39 36.32934 -116.03813 18430 ft 326 kts 136°
2026-05-03 21:39 36.31453 -116.01740 18207 ft 318 kts 136°
2026-05-03 21:40 36.29985 -115.99695 17802 ft 316 kts 136°
2026-05-03 21:40 36.28529 -115.97668 17430 ft 313 kts 136°
2026-05-03 21:40 36.27081 -115.95652 17107 ft 311 kts 136°
2026-05-03 21:40 36.25655 -115.93662 16848 ft 307 kts 135°
2026-05-03 21:41 36.24291 -115.91636 16593 ft 305 kts 133°
2026-05-03 21:41 36.22986 -115.89575 16346 ft 305 kts 132°
2026-05-03 21:41 36.21683 -115.87490 16098 ft 305 kts 131°
2026-05-03 21:41 36.20386 -115.85415 15849 ft 303 kts 131°
2026-05-03 21:42 36.19092 -115.83358 15599 ft 302 kts 132°
2026-05-03 21:42 36.17802 -115.81317 15352 ft 301 kts 131°
2026-05-03 21:42 36.16515 -115.79285 15097 ft 299 kts 131°
2026-05-03 21:42 36.15234 -115.77261 14848 ft 298 kts 131°
2026-05-03 21:43 36.13999 -115.75209 14595 ft 298 kts 125°
2026-05-03 21:43 36.13093 -115.72899 14363 ft 300 kts 116°
2026-05-03 21:43 36.12363 -115.70515 14121 ft 299 kts 114°
2026-05-03 21:43 36.11670 -115.68087 13871 ft 299 kts 113°
2026-05-03 21:44 36.10973 -115.65675 13627 ft 297 kts 114°
2026-05-03 21:44 36.10256 -115.63290 13383 ft 294 kts 114°
2026-05-03 21:44 36.09528 -115.60930 13136 ft 293 kts 115°
2026-05-03 21:44 36.08797 -115.58584 12898 ft 292 kts 115°
2026-05-03 21:45 36.08072 -115.56248 12646 ft 289 kts 115°
2026-05-03 21:45 36.07351 -115.53922 12396 ft 289 kts 115°
2026-05-03 21:45 36.06638 -115.51610 12136 ft 287 kts 114°
2026-05-03 21:45 36.05929 -115.49317 12002 ft 285 kts 114°
2026-05-03 21:46 36.05218 -115.47021 12005 ft 286 kts 114°
2026-05-03 21:46 36.04506 -115.44728 12010 ft 286 kts 114°
2026-05-03 21:46 36.03791 -115.42425 12009 ft 287 kts 114°
2026-05-03 21:46 36.03080 -115.40131 11795 ft 285 kts 114°
2026-05-03 21:47 36.02369 -115.37849 11356 ft 285 kts 114°
2026-05-03 21:47 36.01714 -115.35576 11070 ft 284 kts 108°
2026-05-03 21:47 36.01414 -115.33167 10804 ft 282 kts 98°
2026-05-03 21:47 36.01305 -115.30741 10444 ft 283 kts 96°
2026-05-03 21:48 36.01238 -115.28301 10055 ft 286 kts 96°
2026-05-03 21:48 36.01156 -115.25857 9798 ft 282 kts 96°
2026-05-03 21:48 36.01047 -115.23463 9592 ft 276 kts 97°
2026-05-03 21:48 36.00919 -115.21086 9414 ft 288 kts 97°
2026-05-03 21:49 36.00775 -115.18524 9429 ft 297 kts 97°
2026-05-03 21:49 36.00646 -115.15996 9378 ft 290 kts 97°
2026-05-03 21:49 36.00516 -115.13568 9260 ft 278 kts 97°
2026-05-03 21:49 36.00380 -115.11235 9153 ft 266 kts 98°
2026-05-03 21:50 36.00253 -115.09006 9051 ft 253 kts 97°
2026-05-03 21:50 36.00146 -115.06888 8911 ft 243 kts 97°
2026-05-03 21:50 36.00046 -115.04829 8641 ft 238 kts 98°
2026-05-03 21:50 35.99942 -115.02792 8303 ft 238 kts 98°
2026-05-03 21:51 35.99835 -115.00757 7964 ft 237 kts 97°
2026-05-03 21:51 35.99746 -114.98727 7666 ft 235 kts 95°
2026-05-03 21:51 35.99737 -114.96758 7520 ft 223 kts 94°
2026-05-03 21:51 35.99757 -114.94871 7276 ft 218 kts 93°
2026-05-03 21:52 35.99784 -114.93009 6958 ft 216 kts 93°
2026-05-03 21:52 35.99810 -114.91164 6622 ft 214 kts 93°
2026-05-03 21:52 35.99835 -114.89326 6256 ft 214 kts 93°
2026-05-03 21:52 35.99858 -114.87489 5911 ft 214 kts 93°
2026-05-03 21:53 35.99884 -114.85661 5580 ft 213 kts 92°
2026-05-03 21:53 36.00198 -114.83855 5185 ft 220 kts 66°
2026-05-03 21:53 36.01186 -114.82427 4854 ft 226 kts 38°
2026-05-03 21:53 36.02528 -114.81424 4798 ft 225 kts 24°
2026-05-03 21:54 36.04045 -114.80967 4782 ft 226 kts
2026-05-03 21:54 36.05566 -114.81378 4761 ft 226 kts 327°
2026-05-03 21:54 36.06614 -114.82760 4766 ft 222 kts 291°
2026-05-03 21:54 36.06943 -114.84584 4784 ft 217 kts 269°
2026-05-03 21:55 36.06943 -114.86447 4781 ft 217 kts 266°
2026-05-03 21:55 36.06961 -114.88302 4775 ft 215 kts 268°
2026-05-03 21:55 36.07061 -114.90156 4771 ft 216 kts 270°
2026-05-03 21:55 36.07187 -114.92005 4772 ft 216 kts 270°
2026-05-03 21:56 36.07293 -114.93853 4775 ft 217 kts 270°
2026-05-03 21:56 36.07369 -114.95719 4773 ft 217 kts 268°
2026-05-03 21:56 36.07385 -114.97576 4574 ft 214 kts 266°
2026-05-03 21:56 36.07381 -114.99399 4284 ft 209 kts 266°
2026-05-03 21:57 36.07377 -115.01145 4004 ft 198 kts 266°
2026-05-03 21:57 36.07377 -115.02797 3753 ft 185 kts 266°
2026-05-03 21:57 36.07376 -115.04322 3518 ft 173 kts 266°
2026-05-03 21:57 36.07374 -115.05764 3295 ft 163 kts 266°
2026-05-03 21:58 36.07372 -115.07154 3091 ft 160 kts 265°
2026-05-03 21:58 36.07374 -115.08494 2881 ft 152 kts 263°
2026-05-03 21:58 36.07369 -115.09796 2672 ft 151 kts 263°
2026-05-03 21:58 36.07367 -115.11095 2471 ft 150 kts 264°
2026-05-03 21:59 36.07367 -115.12389 2268 ft 151 kts 264°
2026-05-03 21:59 36.07359 -115.13589 2195 ft 116 kts 276°
2026-05-03 21:59 36.07346 -115.14358 2195 ft 64 kts 271°
2026-05-03 21:59 36.07354 -115.14706 2195 ft 29 kts 290°
2026-05-03 22:00 36.07410 -115.14919 2195 ft 23 kts 291°
2026-05-03 22:00 36.07446 -115.15011 2195 ft 8 kts 297°
2026-05-03 22:00 36.07475 -115.15071 2195 ft 8 kts 307°
2026-05-03 22:00 36.07515 -115.15117 2195 ft 8 kts 325°
2026-05-03 22:01 36.07564 -115.15145 2195 ft 8 kts 339°
2026-05-03 22:01 36.07615 -115.15171 2195 ft 8 kts 336°
2026-05-03 22:01 36.07666 -115.15200 2195 ft 8 kts 332°
2026-05-03 22:01 36.07716 -115.15235 2195 ft 8 kts 329°
2026-05-03 22:02 36.07767 -115.15258 2195 ft 8 kts
2026-05-03 22:02 36.07798 -115.15210 2195 ft 8 kts 81°
2026-05-03 22:02 36.07802 -115.15145 2195 ft 8 kts 88°
2026-05-03 22:02 36.07800 -115.15080 2195 ft 8 kts 94°
2026-05-03 22:03 36.07796 -115.15013 2195 ft 8 kts 94°
2026-05-03 22:03 36.07792 -115.14947 2195 ft 8 kts 94°
2026-05-03 22:03 36.07790 -115.14902 2195 ft 8 kts 94°
2026-05-03 22:03 36.07786 -115.14809 2195 ft 8 kts 93°
2026-05-03 22:04 36.07782 -115.14763 2195 ft 8 kts 97°
2026-05-03 22:04 36.07773 -115.14668 2195 ft 9 kts 97°
2026-05-03 22:04 36.07768 -115.14594 2195 ft 9 kts 93°
2026-05-03 22:04 36.07764 -115.14519 2195 ft 9 kts 94°
2026-05-03 22:05 36.07761 -115.14467 2195 ft 9 kts 94°
2026-05-03 22:05 36.07767 -115.14443 2195 ft 1 kts 11°
2026-05-03 22:05 36.07780 -115.14441 2195 ft 2 kts
2026-05-03 22:05 36.07797 -115.14439 2195 ft 3 kts 10°
2026-05-03 22:06 36.07818 -115.14423 2195 ft 6 kts 50°
2026-05-03 22:06 36.07827 -115.14352 2195 ft 11 kts 91°
2026-05-03 22:06 36.07825 -115.14250 2195 ft 12 kts 91°
2026-05-03 22:06 36.07838 -115.14177 2195 ft 9 kts 41°
2026-05-03 22:07 36.07901 -115.14160 2195 ft 10 kts
2026-05-03 22:07 36.07969 -115.14160 2195 ft 7 kts
2026-05-03 22:07 36.08017 -115.14160 2195 ft 6 kts
2026-05-03 22:07 36.08032 -115.14121 2195 ft 6 kts 95°
2026-05-03 22:08 36.08029 -115.14085 2195 ft 4 kts 96°
2026-05-03 22:08 36.08027 -115.14069 2195 ft 2 kts 96°
2026-05-03 22:08 36.08027 -115.14066 2195 ft 0 kts 95°